1499644800.97,12027,18.94,74354.0,6.01,-13.83,-14.93,0,*7A
1499644802.25,12028,18.94,74358.3,6.01,-13.79,-14.83,0,*71
1499644803.53,12029,18.94,74352.8,6.01,-13.79,-14.93,0,*71
1499644804.82,12030,18.94,74354.3,6.01,-13.83,-14.79,0,*78
1499644806.08,12031,18.94,74352.8,5.99,-13.87,-14.97,0,*7F
1499644807.31,12032,18.94,74352.3,5.97,-13.93,-15.07,0,*7F
1499644808.57,12033,18.94,74352.8,5.99,-13.87,-14.97,0,*7D
1499644809.83,12034,18.94,74354.0,5.99,-13.83,-14.97,0,*7E
1499644811.11,12035,18.88,74352.3,5.97,-13.87,-14.93,0,*71
1499644812.39,12036,18.94,74354.0,5.97,-13.79,-14.93,0,*73
1499644813.63,12037,18.94,74352.8,5.99,-13.83,-14.89,0,*72
1499644814.9,12038,18.94,74352.3,5.99,-13.83,-14.97,0,*72
1499644816.16,12039,18.88,74354.5,5.99,-13.87,-14.97,0,*77
1499644817.44,12040,18.88,74352.0,5.97,-13.87,-14.93,0,*73
1499644818.69,12041,18.94,74358.8,5.99,-13.61,-14.75,0,*7C
1499644819.95,12042,18.94,74352.8,5.97,-13.65,-14.75,0,*75
1499644821.18,12043,18.94,74354.8,5.97,-13.73,-14.89,0,*70
1499644822.4,12044,18.94,74354.3,5.99,-13.51,-14.65,0,*7B
1499644823.61,12045,18.88,74350.5,5.99,-13.55,-14.61,0,*7A
1499644824.86,12046,18.88,74350.0,5.97,-13.47,-14.55,0,*73
1499644826.07,12047,18.94,74354.0,5.99,-13.51,-14.61,0,*7C
1499644827.28,12048,18.94,74352.8,5.99,-13.51,-14.61,0,*73
1499644828.54,12049,18.94,74354.0,5.99,-13.61,-14.75,0,*74
1499644829.75,12050,18.94,74354.0,5.99,-13.55,-14.61,0,*7E
1499644830.96,12051,18.88,74348.8,5.99,-13.51,-14.69,0,*73
1499644832.19,12052,18.94,74354.3,5.99,-13.43,-14.51,0,*78
1499644833.4,12053,18.88,74352.5,5.99,-13.51,-14.61,0,*79
1499644834.61,12054,18.88,74348.8,5.99,-13.51,-14.69,0,*76
1499644835.82,12055,18.88,74350.5,5.99,-13.55,-14.69,0,*73
1499644837.03,12056,18.88,74352.5,5.99,-13.51,-14.61,0,*7C
1499644838.25,12057,18.94,74352.3,5.99,-13.51,-14.61,0,*7D
1499644839.5,12058,18.94,74352.8,5.99,-13.29,-14.43,0,*7D
1499644840.76,12059,18.94,74356.0,5.99,-13.29,-14.51,0,*7F
1499644841.97,12060,18.94,74350.5,5.99,-13.51,-14.61,0,*79
1499644843.18,12061,18.88,74348.8,5.99,-13.51,-14.61,0,*78
1499644844.42,12062,18.88,74346.8,5.99,-13.51,-14.75,0,*7E
1499644845.68,12063,18.88,74348.3,5.99,-13.61,-14.75,0,*7C
1499644846.91,12064,18.88,74352.3,5.99,-13.55,-14.75,0,*7C
1499644848.14,12065,18.88,74350.0,6.01,-13.51,-14.69,0,*76
1499644849.42,12066,18.88,74352.3,6.01,-13.37,-14.55,0,*7A
1499644850.63,12067,18.88,74352.0,5.99,-13.51,-14.69,0,*76
1499644851.86,12068,18.94,74352.8,5.99,-13.55,-14.75,0,*70
1499644853.12,12069,18.88,74352.5,6.01,-13.55,-14.79,0,*7F
1499644854.36,12070,18.88,74348.5,6.03,-13.69,-14.83,0,*7F
1499644855.59,12071,18.94,74354.0,5.99,-13.55,-14.75,0,*78
1499644856.84,12072,18.88,74348.8,5.99,-13.61,-14.75,0,*7C
1499644858.07,12073,18.94,74354.0,5.99,-13.55,-14.75,0,*7A
1499644859.28,12074,18.94,74352.3,5.99,-13.43,-14.61,0,*7F
1499644860.54,12075,18.94,74354.5,5.99,-13.37,-14.55,0,*7A
1499644861.82,12076,18.88,74348.8,6.01,-13.37,-14.55,0,*7B
1499644863.08,12077,18.88,74350.5,6.03,-13.37,-14.55,0,*78
1499644864.29,12078,18.94,74352.3,5.99,-13.51,-14.69,0,*78
1499644865.55,12079,18.88,74348.8,6.03,-13.37,-14.55,0,*76
1499644866.78,12080,18.94,74354.0,6.01,-13.47,-14.65,0,*76
1499644868.01,12081,18.88,74348.8,5.99,-13.55,-14.83,0,*7E
1499644869.24,12082,18.88,74348.8,6.01,-13.55,-14.69,0,*7B
1499644870.48,12083,18.94,74354.5,6.01,-13.51,-14.65,0,*72
1499644871.72,12084,18.94,74354.0,6.01,-13.51,-14.65,0,*75
1499644872.96,12085,18.94,74352.3,6.01,-13.51,-14.65,0,*74
1499644874.19,12086,18.94,74354.8,5.97,-13.47,-14.65,0,*7C
1499644875.39,12087,18.94,74354.8,5.99,-13.43,-14.69,0,*7B
1499644876.63,12088,18.94,74354.0,5.99,-13.51,-14.75,0,*7A
1499644877.86,12089,18.94,74354.0,6.01,-13.47,-14.69,0,*73
1499644879.09,12090,18.88,74352.5,6.01,-13.47,-14.65,0,*77
1499644880.32,12091,18.94,74354.8,6.01,-13.47,-14.65,0,*76
1499644881.52,12092,18.88,74352.8,5.99,-13.43,-14.61,0,*77
1499644882.75,12093,18.94,74354.8,5.99,-13.15,-14.51,0,*76
1499644883.96,12094,18.88,74354.8,5.99,-13.23,-14.37,0,*74
1499644885.19,12095,18.88,74352.3,5.99,-13.23,-14.55,0,*71
1499644886.43,12096,18.94,74352.0,5.99,-13.23,-14.55,0,*72
1499644887.69,12097,18.94,74352.0,5.99,-13.37,-14.55,0,*76
1499644888.92,12098,18.94,74354.8,6.01,-13.47,-14.65,0,*7F
1499644890.15,12099,18.88,74350.0,6.01,-13.47,-14.65,0,*7E
1499644891.43,12100,18.88,74350.0,6.01,-13.37,-14.55,0,*7B
1499644892.69,12101,18.94,74354.0,6.03,-13.33,-14.55,0,*7C
1499644893.95,12102,18.94,74352.5,6.01,-13.23,-14.47,0,*7F
1499644895.21,12103,18.88,74352.3,6.01,-13.19,-14.47,0,*77
1499644896.44,12104,18.94,74354.0,6.01,-12.97,-14.23,0,*75
1499644897.67,12105,18.88,74348.0,6.01,-13.11,-14.37,0,*7E
1499644898.88,12106,18.88,74348.5,6.03,-13.19,-14.37,0,*77
1499644900.14,12107,18.88,74350.8,6.01,-13.23,-14.51,0,*7D
1499644901.4,12108,18.94,74354.0,6.01,-13.23,-14.55,0,*76
1499644902.66,12109,18.88,74350.8,6.01,-13.19,-14.51,0,*7A
1499644903.89,12110,18.94,74350.5,6.03,-13.33,-14.65,0,*7F
1499644905.17,12111,18.88,74348.8,6.01,-13.33,-14.55,0,*7F
1499644906.41,12112,18.94,74352.3,6.03,-13.23,-14.51,0,*7B
1499644907.64,12113,18.94,74352.0,6.03,-13.33,-14.65,0,*7C
1499644908.87,12114,18.88,74348.8,6.01,-13.47,-14.65,0,*7A
1499644910.07,12115,18.94,74352.0,6.03,-13.47,-14.69,0,*75
1499644911.3,12116,18.88,74352.3,6.01,-13.47,-14.69,0,*74
1499644912.55,12117,18.94,74352.0,6.03,-13.33,-14.51,0,*7F
1499644913.81,12118,18.88,74352.3,6.01,-13.19,-14.51,0,*7A
1499644915.09,12119,18.94,74354.0,6.01,-13.33,-14.55,0,*77
1499644916.33,12120,18.88,74350.8,6.03,-13.11,-14.47,0,*7C
1499644917.56,12121,18.88,74350.5,6.01,-13.07,-14.37,0,*7F
1499644918.78,12122,18.94,74354.0,6.01,-13.07,-14.33,0,*78
1499644920.02,12123,18.88,74350.8,6.03,-13.11,-14.51,0,*78
1499644921.27,12124,18.88,74352.0,6.01,-13.33,-14.65,0,*7A
1499644922.51,12125,18.88,74350.5,6.03,-13.33,-14.65,0,*79
1499644923.77,12126,18.88,74352.8,6.01,-13.23,-14.55,0,*7A
1499644925.01,12127,18.94,74356.3,6.03,-13.19,-14.47,0,*73
1499644926.24,12128,18.88,74356.3,6.03,-13.11,-14.47,0,*74
1499644927.49,12129,18.94,74354.8,6.01,-12.83,-14.23,0,*7F
1499644928.7,12130,18.88,74354.5,6.03,-12.97,-14.33,0,*71
1499644929.93,12131,18.94,74354.0,6.03,-12.79,-14.19,0,*78
1499644931.19,12132,18.88,74352.5,6.03,-12.79,-14.05,0,*76
1499644932.44,12133,18.88,74348.3,6.03,-12.71,-14.05,0,*7F
1499644933.72,12134,18.88,74348.3,6.05,-12.61,-14.01,0,*7B
1499644934.98,12135,18.88,74348.3,6.07,-12.57,-13.87,0,*74
1499644936.21,12136,18.88,74348.3,6.07,-12.83,-14.23,0,*77
1499644937.42,12137,18.94,74350.3,6.07,-12.89,-14.23,0,*7C
1499644938.67,12138,18.88,74350.5,6.05,-12.79,-14.19,0,*77
1499644939.91,12139,18.88,74348.3,6.07,-12.75,-14.23,0,*71
1499644941.14,12140,18.88,74346.0,6.05,-12.89,-14.33,0,*7F
1499644942.39,12141,18.94,74350.0,6.05,-12.79,-14.29,0,*7A
1499644943.62,12142,18.88,74346.8,6.07,-12.83,-14.23,0,*74
1499644944.83,12143,18.94,74350.3,6.07,-12.89,-14.23,0,*7F
1499644946.07,12144,18.94,74350.3,6.07,-12.83,-14.23,0,*72
1499644947.3,12145,18.88,74346.8,6.07,-12.75,-14.23,0,*7A
1499644948.53,12146,18.88,74344.0,6.05,-12.89,-14.33,0,*79
1499644949.74,12147,18.88,74344.8,6.07,-12.89,-14.29,0,*71
1499644950.95,12148,18.88,74348.3,6.07,-12.97,-14.23,0,*7B
1499644952.19,12149,18.94,74348.0,6.07,-12.75,-14.23,0,*76
1499644953.42,12150,18.88,74346.0,6.07,-12.83,-14.29,0,*7D
1499644954.65,12151,18.88,74346.3,6.09,-12.97,-14.37,0,*78
1499644955.93,12152,18.94,74348.5,6.09,-13.01,-14.43,0,*76
1499644957.17,12153,18.88,74348.0,6.09,-12.97,-14.37,0,*7A
1499644958.42,12154,18.88,74348.0,6.09,-12.89,-14.43,0,*71
1499644959.67,12155,18.94,74348.5,6.09,-12.97,-14.43,0,*7F
1499644960.93,12156,18.88,74350.8,6.09,-12.75,-14.23,0,*76
1499644962.19,12157,18.88,74348.8,6.09,-12.75,-14.15,0,*72
1499644963.45,12158,18.88,74346.8,6.13,-12.79,-14.23,0,*7F
1499644964.71,12159,18.88,74344.8,6.09,-12.75,-14.23,0,*79
1499644965.99,12160,18.94,74348.0,6.09,-12.61,-13.97,0,*7E
1499644967.25,12161,18.88,74344.5,6.09,-12.71,-14.15,0,*73
1499644968.51,12162,18.88,74344.0,6.09,-12.75,-14.15,0,*74
1499644969.73,12163,18.88,74348.0,6.15,-12.57,-14.11,0,*7C
1499644970.98,12164,18.88,74348.8,6.13,-12.71,-14.19,0,*71
1499644972.24,12165,18.94,74350.3,6.15,-12.65,-14.05,0,*7E
1499644973.46,12166,18.88,74346.3,6.15,-12.57,-14.11,0,*79
1499644974.71,12167,18.88,74342.5,6.17,-12.53,-13.93,0,*73
1499644975.93,12168,18.94,74348.5,6.15,-12.57,-13.93,0,*7A
1499644977.18,12169,18.88,74350.5,6.17,-12.53,-13.93,0,*7D
1499644978.43,12170,18.94,74352.5,6.15,-12.65,-14.05,0,*7A
1499644979.66,12171,18.88,74350.8,6.15,-12.65,-14.19,0,*76
1499644980.92,12172,18.94,74352.0,6.17,-12.65,-14.15,0,*7B
1499644982.2,12173,18.94,74354.8,6.17,-12.53,-14.05,0,*7E
1499644983.46,12174,18.88,74350.5,6.17,-12.53,-14.15,0,*78
1499644984.71,12175,18.88,74350.0,6.17,-12.75,-14.29,0,*72
1499644985.97,12176,18.94,74348.3,6.17,-12.65,-14.15,0,*7F
1499644987.2,12177,18.88,74348.5,6.17,-12.89,-14.29,0,*73
1499644988.45,12178,18.88,74350.0,6.17,-12.65,-14.15,0,*71
1499644989.67,12179,18.88,74346.8,6.19,-12.61,-14.11,0,*7E
1499644990.9,12180,18.88,74348.3,6.19,-12.83,-14.29,0,*7F
1499644992.13,12181,18.94,74348.3,6.19,-12.61,-14.15,0,*7D
1499644993.36,12182,18.88,74350.8,6.19,-12.71,-14.23,0,*7A
1499644994.59,12183,18.88,74348.0,6.21,-12.71,-14.15,0,*75
1499644995.82,12184,18.88,74348.8,6.19,-12.83,-14.23,0,*71
1499644997.06,12185,18.88,74348.5,6.19,-12.75,-14.29,0,*73
1499644998.28,12186,18.88,74346.8,6.21,-12.75,-14.29,0,*7B
1499644999.51,12187,18.88,74348.5,6.19,-12.89,-14.43,0,*7E
1499645000.74,12188,18.94,74348.8,6.21,-12.97,-14.47,0,*71
1499645001.97,12189,18.88,74350.8,6.19,-12.89,-14.43,0,*70
1499645003.19,12190,18.88,74350.0,6.19,-12.83,-14.29,0,*7E
1499645004.43,12191,18.94,74352.3,6.19,-12.71,-14.23,0,*78
1499645005.65,12192,18.88,74348.8,6.19,-12.83,-14.29,0,*7C
1499645006.88,12193,18.88,74348.3,6.21,-12.75,-14.23,0,*75
1499645008.09,12194,18.94,74348.0,6.21,-12.47,-14.15,0,*76
1499645009.32,12195,18.88,74348.0,6.21,-12.57,-14.15,0,*76
1499645010.54,12196,18.88,74348.5,6.19,-12.61,-14.23,0,*7E
1499645011.77,12197,18.88,74346.3,6.21,-12.61,-14.15,0,*71
1499645012.99,12198,18.88,74346.0,6.21,-12.71,-14.11,0,*7B
1499645014.22,12199,18.94,74348.0,6.19,-12.61,-14.15,0,*74
1499645015.48,12200,18.94,74348.8,6.23,-12.57,-14.19,0,*77
1499645016.7,12201,18.88,74348.8,6.25,-12.53,-13.93,0,*71
1499645017.96,12202,18.94,74348.8,6.25,-12.57,-14.05,0,*7E
1499645019.19,12203,18.88,74344.5,6.25,-12.57,-14.19,0,*72
1499645020.44,12204,18.88,74348.3,6.23,-12.65,-14.11,0,*7A
1499645021.67,12205,18.88,74344.3,6.25,-12.57,-14.11,0,*7C
1499645022.9,12206,18.88,74344.3,6.25,-12.71,-14.23,0,*7A
1499645024.14,12207,18.88,74348.0,6.25,-12.71,-14.23,0,*7B
1499645025.39,12208,18.94,74350.3,6.23,-12.65,-14.23,0,*77
1499645026.62,12209,18.88,74346.0,6.25,-12.65,-14.19,0,*79
1499645027.85,12210,18.88,74348.8,6.25,-12.53,-14.11,0,*7C
1499645029.08,12211,18.88,74344.0,6.25,-12.53,-14.11,0,*7D
1499645030.34,12212,18.88,74344.3,6.23,-12.71,-14.23,0,*79
1499645031.57,12213,18.88,74346.0,6.25,-12.71,-14.29,0,*74
1499645032.8,12214,18.88,74346.8,6.25,-12.71,-14.19,0,*70
1499645034.06,12215,18.88,74344.3,6.27,-12.65,-14.23,0,*7F
1499645035.32,12216,18.88,74346.0,6.27,-12.65,-14.23,0,*7C
1499645036.57,12217,18.88,74348.3,6.27,-12.65,-14.19,0,*74
1499645037.8,12218,18.88,74348.5,6.25,-12.79,-14.37,0,*78
1499645039.04,12219,18.88,74344.5,6.25,-12.71,-14.23,0,*74
1499645040.3,12220,18.88,74344.8,6.25,-12.57,-14.05,0,*7E
1499645041.53,12221,18.88,74346.0,6.25,-12.65,-14.23,0,*7A
1499645042.79,12222,18.88,74344.3,6.27,-12.53,-14.15,0,*7B
1499645044.05,12223,18.88,74346.5,6.27,-12.61,-14.15,0,*7B
1499645045.27,12224,18.88,74346.3,6.29,-12.75,-14.33,0,*73
1499645046.53,12225,18.88,74346.0,6.27,-12.65,-14.23,0,*7C
1499645047.76,12226,18.88,74344.8,6.29,-12.79,-14.23,0,*7C
1499645048.96,12227,18.88,74350.5,6.29,-12.89,-14.33,0,*73
1499645050.21,12228,18.88,74348.3,6.29,-13.01,-14.51,0,*79
1499645051.44,12229,18.88,74346.8,6.29,-12.93,-14.47,0,*75
1499645052.67,12230,18.94,74352.3,6.27,-12.93,-14.37,0,*74
1499645053.93,12231,18.88,74350.8,6.27,-12.75,-14.37,0,*7D
1499645055.19,12232,18.88,74348.8,6.27,-12.89,-14.47,0,*7A
1499645056.42,12233,18.88,74348.0,6.29,-12.93,-14.47,0,*7E
1499645057.65,12234,18.94,74350.8,6.29,-12.79,-14.37,0,*7A
1499645058.87,12235,18.94,74348.8,6.29,-12.79,-14.33,0,*7F
1499645060.07,12236,18.88,74346.0,6.29,-12.89,-14.33,0,*73
1499645061.3,12237,18.88,74348.5,6.29,-12.79,-14.33,0,*7D
1499645062.56,12238,18.88,74350.3,6.27,-12.93,-14.51,0,*7C
1499645063.81,12239,18.94,74352.3,6.29,-13.01,-14.51,0,*79
1499645065.02,12240,18.88,74348.8,6.29,-13.07,-14.65,0,*76
1499645066.3,12241,18.88,74348.8,6.27,-13.01,-14.51,0,*78
1499645067.53,12242,18.88,74352.8,6.27,-12.89,-14.37,0,*7A
1499645068.76,12243,18.88,74354.5,6.27,-12.89,-14.37,0,*7B
1499645070.01,12244,18.88,74354.0,6.29,-13.01,-14.51,0,*73
1499645071.24,12245,18.88,74354.0,6.29,-13.01,-14.61,0,*71
1499645072.44,12246,18.88,74348.5,6.29,-13.15,-14.61,0,*77
1499645073.64,12247,18.94,74354.0,6.29,-13.15,-14.65,0,*72
1499645074.89,12248,18.88,74348.3,6.29,-13.01,-14.51,0,*7F
1499645076.18,12249,18.88,74354.8,6.27,-13.01,-14.51,0,*70
1499645077.41,12250,18.94,74356.0,6.29,-12.93,-14.51,0,*7C
1499645078.67,12251,18.88,74350.8,6.27,-12.93,-14.51,0,*73
1499645079.92,12252,18.88,74354.3,6.29,-13.01,-14.51,0,*74
1499645081.15,12253,18.88,74350.8,6.29,-13.01,-14.61,0,*76
1499645082.34,12254,18.88,74352.3,6.29,-13.15,-14.61,0,*74
1499645083.55,12255,18.88,74350.5,6.29,-13.07,-14.65,0,*72
1499645084.78,12256,18.88,74352.3,6.27,-13.15,-14.65,0,*7C
1499645086.03,12257,18.88,74354.3,6.27,-13.15,-14.75,0,*7C
1499645087.26,12258,18.88,74352.3,6.27,-13.07,-14.65,0,*71
1499645088.52,12259,18.88,74352.3,6.27,-13.15,-14.79,0,*7E
1499645089.75,12260,18.88,74352.5,6.27,-13.07,-14.65,0,*7A
1499645090.98,12261,18.88,74354.0,6.27,-13.15,-14.65,0,*78
1499645092.24,12262,18.88,74352.5,6.27,-13.01,-14.61,0,*7A
1499645093.5,12263,18.88,74348.0,6.27,-13.01,-14.65,0,*7F
1499645094.71,12264,18.88,74354.3,6.29,-13.07,-14.65,0,*70
1499645095.95,12265,18.88,74348.8,6.27,-13.19,-14.89,0,*72
1499645097.21,12266,18.88,74354.0,6.27,-13.23,-14.79,0,*77
1499645098.47,12267,18.88,74352.0,6.27,-13.19,-14.79,0,*7F
1499645099.72,12268,18.88,74348.0,6.27,-13.07,-14.75,0,*73
1499645100.97,12269,18.88,74354.3,6.27,-13.15,-14.75,0,*71
1499645102.21,12270,18.94,74354.0,6.27,-13.19,-14.89,0,*76
1499645103.48,12271,18.88,74352.8,6.27,-13.19,-14.79,0,*78
1499645104.74,12272,18.88,74354.3,6.25,-13.29,-14.83,0,*7F
1499645105.98,12273,18.88,74352.5,6.27,-13.19,-14.89,0,*75
1499645107.22,12274,18.88,74352.5,6.27,-13.19,-14.89,0,*72
1499645108.45,12275,18.88,74354.0,6.25,-13.23,-14.83,0,*72
1499645109.69,12276,18.88,74348.8,6.25,-13.11,-14.79,0,*75
1499645110.89,12277,18.88,74352.5,6.25,-13.19,-14.69,0,*7D
1499645112.13,12278,18.88,74354.3,6.25,-13.23,-14.93,0,*7E
1499645113.36,12279,18.94,74352.3,6.25,-13.23,-14.93,0,*7F
1499645114.59,12280,18.88,74348.3,6.23,-13.11,-14.69,0,*7B
1499645115.82,12281,18.88,74354.3,6.23,-13.19,-14.69,0,*72
1499645117.06,12282,18.88,74350.5,6.23,-13.19,-14.69,0,*71
1499645118.29,12283,18.88,74354.8,6.25,-13.11,-14.79,0,*7F
1499645119.55,12284,18.88,74352.3,6.23,-13.19,-14.79,0,*76
1499645120.81,12285,18.88,74352.3,6.23,-13.19,-14.83,0,*72
1499645122.07,12286,18.88,74352.0,6.27,-13.15,-14.79,0,*7C
1499645123.31,12287,18.88,74354.5,6.27,-13.19,-14.89,0,*7E
1499645124.51,12288,18.88,74354.8,6.25,-13.11,-14.65,0,*79
1499645125.74,12289,18.88,74350.8,6.23,-13.11,-14.69,0,*72
1499645126.95,12290,18.88,74352.3,6.25,-13.19,-14.69,0,*74
1499645128.16,12291,18.88,74350.8,6.25,-13.07,-14.65,0,*76
1499645129.39,12292,18.88,74352.0,6.23,-13.07,-14.65,0,*73
1499645130.6,12293,18.88,74352.0,6.25,-13.11,-14.69,0,*7F
1499645131.83,12294,18.88,74354.5,6.23,-13.11,-14.69,0,*7E
1499645133.06,12295,18.88,74354.0,6.27,-12.93,-14.61,0,*78
1499645134.27,12296,18.88,74354.3,6.25,-12.97,-14.65,0,*79
1499645135.51,12297,18.88,74354.3,6.25,-13.11,-14.79,0,*7A
1499645136.71,12298,18.88,74354.8,6.25,-13.07,-14.69,0,*73
1499645137.94,12299,18.88,74354.8,6.25,-13.07,-14.79,0,*73
1499645139.18,12300,18.88,74354.3,6.25,-13.07,-14.79,0,*72
1499645140.42,12301,18.88,74354.0,6.25,-13.19,-14.79,0,*7C
1499645141.68,12302,18.88,74352.5,6.23,-13.19,-14.83,0,*7C
1499645142.94,12303,18.88,74354.5,6.23,-13.23,-14.93,0,*75
1499645144.2,12304,18.88,74354.8,6.23,-13.23,-14.93,0,*72
1499645145.45,12305,18.94,74356.5,6.23,-13.11,-14.79,0,*76
1499645146.66,12306,18.88,74352.3,6.25,-13.11,-14.69,0,*72
1499645147.86,12307,18.88,74354.3,6.25,-13.11,-14.69,0,*73
1499645149.06,12308,18.88,74352.5,6.25,-13.11,-14.69,0,*7C
1499645150.32,12309,18.88,74352.0,6.23,-12.97,-14.55,0,*7B
1499645151.56,12310,18.88,74354.3,6.25,-12.93,-14.55,0,*71
1499645152.77,12311,18.88,74352.0,6.25,-12.93,-14.65,0,*73
1499645154.01,12312,18.88,74352.0,6.23,-12.97,-14.65,0,*72
1499645155.23,12313,18.88,74352.0,6.23,-13.07,-14.69,0,*77
1499645156.47,12314,18.88,74352.8,6.25,-12.97,-14.79,0,*7F
1499645157.71,12315,18.88,74358.3,6.23,-12.97,-14.65,0,*75
1499645158.94,12316,18.88,74352.5,6.23,-12.97,-14.65,0,*76
1499645160.18,12317,18.88,74354.5,6.25,-12.93,-14.51,0,*72
1499645161.43,12318,18.88,74354.5,6.25,-12.71,-14.43,0,*72
1499645162.71,12319,18.88,74354.5,6.23,-12.79,-14.51,0,*7E
1499645163.99,12320,18.88,74350.3,6.23,-12.83,-14.51,0,*71
1499645165.24,12321,18.88,74354.3,6.25,-12.79,-14.43,0,*70
1499645166.49,12322,18.94,74354.0,6.25,-12.71,-14.43,0,*7B
1499645167.75,12323,18.88,74346.5,6.25,-12.79,-14.43,0,*72
1499645168.98,12324,18.94,74354.0,6.25,-12.57,-14.37,0,*7A
1499645170.23,12325,18.88,74350.5,6.27,-12.65,-14.37,0,*78
1499645171.46,12326,18.88,74350.3,6.25,-12.57,-14.37,0,*78
1499645172.72,12327,18.88,74350.5,6.27,-12.61,-14.23,0,*7B
1499645173.97,12328,18.88,74346.8,6.27,-12.61,-14.33,0,*75
1499645175.22,12329,18.88,74350.0,6.27,-12.61,-14.33,0,*74
1499645176.48,12330,18.88,74350.5,6.27,-12.61,-14.33,0,*7C
1499645177.73,12331,18.88,74350.3,6.27,-12.65,-14.37,0,*7D
1499645178.98,12332,18.88,74348.3,6.27,-12.61,-14.33,0,*7E
1499645180.24,12333,18.88,74348.3,6.27,-12.61,-14.33,0,*7F
1499645181.49,12334,18.88,74348.0,6.27,-12.65,-14.33,0,*7C
1499645182.78,12335,18.94,74354.3,6.27,-12.65,-14.47,0,*7E
1499645184.0,12336,18.88,74354.3,6.29,-12.79,-14.37,0,*79
1499645185.26,12337,18.88,74350.8,6.27,-12.65,-14.37,0,*7B
1499645186.48,12338,18.88,74350.8,6.29,-12.89,-14.51,0,*78
1499645187.71,12339,18.88,74352.0,6.29,-12.65,-14.37,0,*7B
1499645188.93,12340,18.88,74352.5,6.29,-12.65,-14.37,0,*75
1499645190.18,12341,18.88,74354.3,6.29,-12.79,-14.51,0,*79
1499645191.44,12342,18.88,74354.3,6.27,-12.75,-14.37,0,*78
1499645192.69,12343,18.88,74352.3,6.29,-12.79,-14.51,0,*7B
1499645193.9,12344,18.88,74350.8,6.29,-12.93,-14.61,0,*7B
1499645195.12,12345,18.88,74348.0,6.29,-12.89,-14.51,0,*72
1499645196.38,12346,18.88,74354.3,6.29,-12.75,-14.47,0,*75
1499645197.67,12347,18.88,74350.5,6.27,-12.75,-14.47,0,*7A
1499645198.9,12348,18.88,74350.0,6.29,-12.89,-14.47,0,*78
1499645200.15,12349,18.88,74352.8,6.27,-12.79,-14.37,0,*7F
1499645201.38,12350,18.88,74350.0,6.29,-12.75,-14.37,0,*75
1499645202.67,12351,18.88,74354.0,6.27,-12.75,-14.47,0,*7D
1499645203.87,12352,18.88,74350.8,6.29,-12.89,-14.61,0,*77
1499645205.12,12353,18.88,74348.3,6.29,-12.79,-14.51,0,*7A
1499645206.35,12354,18.88,74354.3,6.29,-12.75,-14.37,0,*71
1499645207.61,12355,18.88,74352.8,6.29,-12.79,-14.47,0,*7B
1499645208.81,12356,18.88,74352.5,6.29,-12.89,-14.61,0,*73
1499645210.03,12357,18.88,74354.8,6.29,-12.89,-14.51,0,*71
1499645211.28,12358,18.88,74354.8,6.29,-12.79,-14.51,0,*71
1499645212.57,12359,18.88,74352.8,6.31,-12.71,-14.47,0,*76
1499645213.82,12360,18.88,74352.8,6.31,-12.61,-14.33,0,*7E
1499645215.07,12361,18.88,74354.8,6.31,-12.71,-14.37,0,*7A
1499645216.35,12362,18.94,74354.8,6.31,-12.75,-14.47,0,*7A
1499645217.61,12363,18.88,74350.8,6.31,-12.97,-14.55,0,*74
1499645218.84,12364,18.88,74352.0,6.31,-12.97,-14.61,0,*74
1499645220.06,12365,18.88,74352.0,6.31,-12.97,-14.69,0,*7D
1499645221.32,12366,18.88,74354.3,6.31,-12.89,-14.55,0,*7E
1499645222.6,12367,18.88,74354.0,6.31,-12.75,-14.47,0,*7F
1499645223.87,12368,18.94,74354.8,6.31,-12.61,-14.43,0,*71
1499645225.12,12369,18.88,74354.0,6.31,-12.61,-14.33,0,*77
1499645226.37,12370,18.88,74354.0,6.35,-12.53,-14.29,0,*71
1499645227.63,12371,18.88,74352.0,6.31,-12.57,-14.29,0,*70
1499645228.9,12372,18.88,74350.8,6.31,-12.71,-14.55,0,*7C
1499645230.13,12373,18.88,74348.8,6.37,-12.57,-14.37,0,*7B
1499645231.4,12374,18.88,74348.3,6.35,-12.79,-14.43,0,*71
1499645232.68,12375,18.88,74350.0,6.31,-12.75,-14.47,0,*7C
1499645233.96,12376,18.88,74352.5,6.35,-12.71,-14.43,0,*7B
1499645235.23,12377,18.88,74354.0,6.35,-12.71,-14.43,0,*7A
1499645236.51,12378,18.88,74354.8,6.35,-12.79,-14.51,0,*7E
1499645237.79,12379,18.88,74352.5,6.31,-12.83,-14.47,0,*79
1499645239.02,12380,18.88,74356.8,6.35,-12.93,-14.65,0,*7A
1499645240.3,12381,18.88,74352.8,6.35,-12.83,-14.55,0,*79
1499645241.52,12382,18.88,74354.5,6.31,-12.97,-14.69,0,*74
1499645242.8,12383,18.88,74354.5,6.31,-12.83,-14.55,0,*7F
1499645244.07,12384,18.88,74354.8,6.31,-12.83,-14.47,0,*7B
1499645245.35,12385,18.88,74352.0,6.35,-12.79,-14.51,0,*7C
1499645246.63,12386,18.88,74352.8,6.35,-12.71,-14.43,0,*74
1499645247.91,12387,18.88,74352.8,6.35,-12.79,-14.51,0,*7E
1499645249.19,12388,18.88,74354.0,6.31,-12.75,-14.47,0,*7E
1499645250.47,12389,18.88,74352.8,6.35,-12.71,-14.51,0,*78
1499645251.75,12390,18.88,74356.0,6.35,-12.79,-14.55,0,*7C
1499645253.03,12391,18.88,74354.5,6.31,-12.71,-14.47,0,*72
1499645254.31,12392,18.88,74356.8,6.31,-12.83,-14.55,0,*7F
1499645255.56,12393,18.88,74354.5,6.35,-12.65,-14.37,0,*76
1499645256.84,12394,18.88,74356.3,6.35,-12.71,-14.51,0,*74
1499645258.12,12395,18.88,74356.3,6.35,-12.79,-14.51,0,*7D
1499645259.39,12396,18.88,74352.5,6.35,-12.79,-14.43,0,*7D
1499645260.63,12397,18.88,74358.0,6.37,-12.83,-14.55,0,*7C
1499645261.89,12398,18.88,74358.0,6.39,-12.89,-14.51,0,*73
1499645263.13,12399,18.88,74356.8,6.37,-12.65,-14.51,0,*7E
1499645264.41,12400,18.88,74356.3,6.35,-12.71,-14.43,0,*7D
1499645265.68,12401,18.88,74358.0,6.35,-12.79,-14.43,0,*74
1499645266.93,12402,18.88,74354.8,6.35,-12.57,-14.37,0,*78
1499645268.15,12403,18.88,74354.0,6.37,-12.65,-14.37,0,*7A
1499645269.39,12404,18.88,74354.8,6.37,-12.71,-14.43,0,*7B
1499645270.64,12405,18.88,74354.5,6.37,-12.79,-14.51,0,*71
1499645271.89,12406,18.88,74354.3,6.37,-12.79,-14.51,0,*72
1499645273.13,12407,18.88,74352.8,6.37,-12.71,-14.43,0,*78
1499645274.38,12408,18.88,74352.3,6.37,-12.79,-14.51,0,*7C
1499645275.62,12409,18.88,74354.0,6.37,-12.65,-14.43,0,*73
1499645276.87,12410,18.88,74354.5,6.37,-12.71,-14.43,0,*7E
1499645278.11,12411,18.88,74358.0,6.37,-12.79,-14.43,0,*77
1499645279.35,12412,18.88,74354.3,6.37,-12.65,-14.43,0,*79
1499645280.63,12413,18.88,74354.5,6.39,-12.75,-14.47,0,*73
1499645281.88,12414,18.88,74354.0,6.37,-12.71,-14.43,0,*7A
1499645283.13,12415,18.88,74354.5,6.37,-12.79,-14.51,0,*70
1499645284.37,12416,18.88,74352.0,6.37,-12.79,-14.55,0,*77
1499645285.63,12417,18.88,74354.3,6.39,-12.65,-14.37,0,*71
1499645286.85,12418,18.88,74354.0,6.37,-12.93,-14.55,0,*7D
1499645288.13,12419,18.88,74354.3,6.39,-12.79,-14.47,0,*75
1499645289.34,12420,18.88,74354.3,6.37,-12.93,-14.65,0,*75
1499645290.59,12421,18.88,74354.5,6.39,-12.89,-14.75,0,*70
1499645291.86,12422,18.88,74354.0,6.39,-12.79,-14.51,0,*7A
1499645293.11,12423,18.88,74352.0,6.37,-12.79,-14.55,0,*71
1499645294.36,12424,18.88,74358.0,6.37,-12.79,-14.55,0,*76
1499645295.61,12425,18.88,74354.3,6.39,-12.89,-14.51,0,*72
1499645296.84,12426,18.88,74354.3,6.37,-12.83,-14.65,0,*72
1499645298.12,12427,18.88,74354.8,6.39,-12.79,-14.51,0,*7F
1499645299.34,12428,18.88,74354.5,6.37,-12.83,-14.65,0,*7C
1499645300.56,12429,18.88,74352.8,6.37,-12.93,-14.55,0,*7F
1499645301.81,12430,18.88,74352.0,6.37,-12.83,-14.55,0,*76
1499645303.06,12431,18.88,74352.0,6.39,-12.79,-14.37,0,*78
1499645304.31,12432,18.88,74350.5,6.37,-12.79,-14.51,0,*75
1499645305.59,12433,18.88,74352.5,6.39,-12.65,-14.47,0,*70